JILIN-01 GAOFEN 3H (46460 NORAD) Tracking and Keplerian Element Data

This shows tracking and keplerian element data for the satellite.

Feedback or suggestion? Click here.




ElementValue
Catalog46460
NameJILIN-01 GAOFEN 3H
Epoch Orbit1088
Epoch Day331.1697159
Epoch Year2020
RAAN25.5194
Inclination97.5236
Eccentricity0.0015706
Argument of Perigee48.9346
Mean Anonmoly35.2301
Mean Motion15.09674216
Decay Rate4.278E-05
L11 46460U 20065G 20331.16971590 .00004278 00000-0 26888-3 0 9996
L22 46460 97.5236 25.5194 0015706 48.9346 35.2301 15.09674216 10885

Live tracking and technical data element details for JILIN-01 GAOFEN 3H (NORAD 46460). JILIN-01 GAOFEN 3H can be tracked NOW for your location showing map with azimuth and elevation plus other details from your city location.

Track the satellite on the map from your city or location and see movement details for azimuth, elevation, latitude, longitude, range, height, and movement on the map or in text.







IsCatalogInMostPopularTable: catalog: 46460, numindb: 19
Update: records affected: 1



GetName: 46460 JILIN-01 GAOFEN 3H

Hit Count: updated at: Thu, 26 Nov 2020 23:06:14 GMT